Welcome to the New NWS' Forecast!
Most changes are behind the scenes, but click here for differences you might notice.
Latest weather observations around

Los Angeles, Los Angeles International Airport (KLAX)

Using English Units (Switch to International System of Units)
Date/ Time (PDT) Wind (mph) Vis. (mi) Weather Sky Cond. Temp (°F) Rel. Humidity Wind Chill (°F) Heat Index (°F) Pressure Precip. (in)
Air Dwpt 6 hour Altimeter (inHg) Sea level (inHg) 1 hr 3 hr 6 hr
Max Min
Jul 17 03:53 WSW 5 10 Cloudy OVC011 69 65     87%     29.95 29.94      
Jul 17 02:53 SW 3 10 Cloudy OVC012 69 64     84%     29.96 29.94      
Jul 17 01:53 WSW 6 10 Clear   70 64     81%     29.96 29.95      
Jul 17 00:53 W 5 10 Mostly Cloudy BKN012 69 64     84%     29.97 29.96      
Jul 17 00:48 WSW 6 10 Mostly Cloudy BKN012 70 64     83%     29.97        
Jul 16 23:53 WSW 6 10 Mostly Clear FEW010 70 64     81%     29.97 29.97      
Jul 16 22:53 WSW 6 10 Mostly Clear FEW010 69 64     84%     29.97 29.97      
Jul 16 21:53 WSW 6 10 Partly Cloudy SCT010 69 64     84%     29.97 29.96      
Jul 16 20:53 WSW 11 10 Cloudy OVC010 70 64     81%     29.96 29.95      
Jul 16 20:36 W 11 10 Cloudy OVC010 70 64     81%     29.95        
Jul 16 19:53 W 11 10 Cloudy OVC009 70 64     81%     29.94 29.93      
Jul 16 19:12 WSW 16 10 Mostly Cloudy BKN009 71 65     81%   72 29.92        
Jul 16 18:53 WSW 16 10 Mostly Clear FEW010 FEW250 72 65     79%   73 29.91 29.91      
Jul 16 17:53 WSW 17 10 Mostly Clear FEW011 FEW250 75 65     71%   76 29.91 29.9      
Jul 16 16:53 W 17 10 Partly Cloudy FEW011 FEW070 SCT250 75 65     71%   76 29.92 29.91      
Jul 16 15:53 WSW 15 10 Partly Cloudy FEW010 FEW090 SCT250 76 66     71%   77 29.93 29.92      
Jul 16 14:53 W 14 10 Partly Cloudy FEW010 FEW090 SCT250 78 64     62%   79 29.94 29.93      
Jul 16 13:53 WSW 13 10 Partly Cloudy FEW020 FEW140 SCT180 77 65     66%   78 29.95 29.95      
Jul 16 12:53 W 13 9 Partly Cloudy FEW019 SCT027 SCT140 77 65     66%   78 29.97 29.96      
Jul 16 11:53 WSW 11 9 Partly Cloudy FEW017 FEW025 SCT140 76 64     67%   76 29.99 29.98      
Jul 16 10:53 W 11 9 Partly Cloudy FEW014 FEW020 SCT140 76 65     69%   76 29.98 29.98      
Jul 16 09:53 7 9 Mostly Cloudy FEW012 SCT020 BKN140 75 65     71%   76 29.98 29.98      
Jul 16 08:53 SSW 5 8 Mostly Cloudy FEW010 SCT016 BKN140 74 64     71%   74 29.99 29.98      
Jul 16 08:01 SSE 6 8 Mostly Cloudy FEW009 SCT016 BKN140 72 64     76%   72 29.99        
Jul 16 07:53 S 3 8 Mostly Cloudy SCT009 BKN016 BKN140 72 64     76%   72 29.98 29.98      
Jul 16 07:08 SE 5 8 Mostly Cloudy SCT010 BKN014 BKN140 71 65     81%   72 29.97        
Jul 16 06:53 3 8 Mostly Cloudy SCT010 SCT018 BKN140 71 65     81%   72 29.97 29.96      
Jul 16 04:53 NNW 3 10 Partly Cloudy FEW010 SCT014 70 64     81%     29.94 29.93      
Jul 16 04:34 NNW 5 10 Partly Cloudy FEW010 SCT014 70 64     81%     29.94        
Jul 16 03:53 W 3 10 Mostly Cloudy FEW010 BKN014 70 64     81%     29.94 29.93      
Jul 16 02:53 Calm 10 Cloudy FEW011 OVC014 70 64     81%     29.94 29.93      
Jul 16 01:53 NNW 6 10 Cloudy FEW011 OVC014 70 64     81%     29.95 29.94      
Jul 16 00:53 WSW 6 10 Mostly Cloudy FEW011 BKN014 70 64     81%     29.97 29.96      
Jul 15 23:53 WSW 5 10 Mostly Cloudy FEW009 BKN012 70 65     84%     29.98 29.96      
Jul 15 23:00 WSW 6 10 Mostly Cloudy FEW009 BKN014 70 65     84%     29.97        
Jul 15 22:53 WSW 8 10 Partly Cloudy FEW010 SCT014 70 65     84%     29.97 29.96      
Jul 15 21:53 WSW 7 10 Mostly Clear FEW010 71 65     81%   72 29.96 29.95      
Jul 15 20:53 W 9 10 Mostly Clear FEW010 FEW250 71 63     76%   71 29.94 29.93      
Jul 15 19:53 W 9 10 Mostly Clear FEW010 FEW250 72 64     76%   72 29.92 29.92      
Jul 15 18:53 WSW 11 10 Mostly Clear FEW010 FEW250 73 65     76%   74 29.91 29.91      
Jul 15 17:53 WSW 14 10 Mostly Clear FEW010 FEW250 74 65     74%   74 29.89 29.89      
Jul 15 16:53 W 10 10 Mostly Clear FEW010 FEW250 75 66     74%   76 29.89 29.89      
Jul 15 15:53 WSW 14 10 Partly Cloudy FEW010 FEW090 SCT250 75 65     71%   76 29.91 29.91      
Jul 15 14:53 W 13 10 Partly Cloudy FEW010 FEW090 SCT250 75 65     71%   76 29.92 29.92      
Jul 15 13:53 W 13 10 Partly Cloudy FEW010 FEW090 SCT300 78 65     64%   79 29.94 29.94      
Jul 15 12:53 W 14 10 Mostly Clear FEW012 FEW300 77 65     66%   78 29.96 29.95      
Jul 15 11:53 WSW 10 10 Mostly Clear FEW012 FEW300 77 65     66%   78 29.97 29.96      
Jul 15 10:53 WSW 10 10 Mostly Clear FEW013 FEW300 77 66     69%   78 29.97 29.96      
Jul 15 09:53 WSW 6 10 Partly Cloudy SCT016 77 65     66%   78 29.96 29.95      
Jul 15 08:53 Calm 10 Partly Cloudy SCT014 75 65     71%   76 29.96 29.96      
Jul 15 07:53 3 10 Partly Cloudy FEW010 FEW014 SCT230 72 64     76%   72 29.96 29.95      
Jul 15 06:53 ESE 5 10 Partly Cloudy FEW010 FEW014 SCT230 70 64     81%     29.95 29.94      
Jul 15 05:53 Calm 10 Partly Cloudy FEW011 FEW200 SCT250 69 64     84%     29.94 29.93      
Jul 15 04:53 Calm 10 Clear CLR 70 64     81%     29.93 29.93      
Jul 15 03:53 Calm 10 Clear CLR 70 65     84%     29.94 29.93      
Jul 15 02:53 WSW 3 10 Clear CLR 70 64     81%     29.94 29.93      
Jul 15 01:53 SW 5 10 Mostly Clear FEW013 70 64     81%     29.94 29.93      
Jul 15 00:53 WSW 7 10 Mostly Clear FEW013 70 64     81%     29.95 29.95      
Jul 14 23:53 S 5 10 Mostly Clear FEW013 70 64     81%     29.95 29.95      
Jul 14 22:53 SSW 6 10 Partly Cloudy SCT012 71 66     84%   72 29.95 29.95      
Jul 14 21:53 W 8 10 Mostly Clear FEW010 FEW230 71 64     79%   72 29.95 29.94      
Jul 14 20:53 SW 8 10 Mostly Clear FEW010 FEW230 71 64     79%   72 29.92 29.92      
Jul 14 19:53 WSW 10 10 Partly Cloudy FEW010 FEW100 SCT230 71 63     76%   71 29.91 29.91      
Jul 14 18:53 W 14 10 Mostly Clear FEW010 FEW100 73 64     73%   73 29.9 29.89      
Jul 14 17:53 W 15 10 Mostly Clear FEW010 FEW100 74 64     71%   74 29.9 29.9      
Jul 14 16:53 W 15 10 Partly Cloudy FEW010 FEW100 SCT180 75 65     71%   76 29.91 29.9      
Jul 14 15:53 W 14 10 Partly Cloudy FEW010 FEW100 SCT180 SCT300 76 65     69%   76 29.92 29.91      
Jul 14 14:53 WSW 13 10 Partly Cloudy FEW010 FEW100 SCT180 SCT300 78 66     67%   79 29.93 29.92      
Jul 14 13:53 W 11 10 Mostly Clear FEW011 FEW080 78 64     62%   79 29.95 29.94      
Jul 14 12:53 W 11 10 Mostly Clear FEW011 FEW080 76 63     64%   76 29.97 29.96      
Jul 14 11:53 WSW 11 10 Mostly Clear FEW012 FEW035 76 63     64%   76 29.99 29.98      
Jul 14 10:53 W 9 10 Mostly Clear FEW012 75 63     66%   75 30 29.99      
Jul 14 09:53 WSW 7 10 Partly Cloudy SCT012 73 64     73%   73 30.01 30      
Jul 14 08:53 WSW 7 10 Partly Cloudy SCT012 72 64     76%   72 30.01 30      
Jul 14 08:43 WSW 7 10 Partly Cloudy SCT012 72 64     76%   72 30.01        
Jul 14 07:53 SW 6 10 Mostly Cloudy BKN012 71 64     79%   72 30.01 30      
Jul 14 06:53 WSW 5 10 Mostly Clear FEW011 FEW200 69 64     84%     29.99 29.98      
Jul 14 05:53 WSW 3 10 Mostly Clear FEW011 FEW200 68 64     87%     29.99 29.98      
Jul 14 04:53 WSW 5 10 Mostly Clear FEW011 68 63     84%     29.98 29.97      
Jul 14 03:53 W 6 10 Mostly Cloudy BKN011 68 63     84%     29.99 29.98      
May 15 08:53 SSW 8 8 Mostly Cloudy BKN021 62 52     70%     30.06 30.05      
May 14 11:53 WSW 17 8 Partly Cloudy FEW027 SCT140 SCT180 65 53     65%     30.01 30      
May 14 09:09 6 7 Mostly Cloudy SCT018 BKN140 63 53     70%     29.99        
May 11 17:53 ESE 7 10 Mostly Cloudy BKN025 BKN031 63 52     67%     29.82 29.81      
Jun 12 02:53 E 6 10 Mostly Clear FEW090 FEW220 57 51     81%     29.97 29.96      
Jun 10 23:53 SW 6 10 Clear   63 57     81%     29.87 29.86      
Jun 10 06:53 WSW 6 10 Cloudy BKN020 OVC026 62 58     86%     29.88 29.87      
Jun 10 05:53 WSW 3 10 Mostly Cloudy BKN023 62 57     84%     29.87 29.86      
Jun 09 15:53 WSW 14 10 Partly Cloudy FEW013 SCT100 69 60     73%     29.91 29.9      
Jun 09 12:53 WSW 14 9 Mostly Clear FEW017 FEW120 70 55     59%     29.96 29.95      
Jun 09 00:53 SSW 3 10 Mostly Clear FEW011 61 56     83%     29.94 29.93      
Jun 08 16:53 WSW 21 10 Clear and Windy   67 57     71%     29.95 29.95      
Jun 08 05:53 W 7 4 Clear   61 60     97%     29.99 29.98 0    
Jun 07 15:53 WSW 13 10 Mostly Clear FEW022 68 59     73%     29.94 29.93      
Jun 07 12:53 7 7 Cloudy OVC016 65 59     81%     29.98 29.98      
Jun 07 10:53 WSW 9 6 Haze SCT012 OVC014 63 59     87%     29.97 29.97     0
Jun 07 09:53 WSW 7 5 Fog/Mist BKN013 OVC018 63 59     87%     29.96 29.96